Tracking 19827 objects as of 21-Aug-2019
HD Live streaming from Space Station
objects crossing your sky now

FENGYUN 1C DEB

Track FENGYUN 1C DEB now!
10-day predictions


NORAD ID: 31678
Int'l Code: 1999-025CCL
Perigee: 559.8 km
Apogee: 1,056.4 km
Inclination: 99.0 °
Period: 100.9 minutes
Semi major axis: 7179 km
RCS: 0.0167 m2 (small)
Launch date: May 10, 1999
Source: People's Republic of China (PRC)
Launch site: Taiyaun Space Center, China (TSC)

Note: This is SATELLITE DEBRIS
aabbcc
Your satellite tracking list
Your tracking list is empty




NASA's NSSDC Master Catalog

Two Line Element Set (TLE):
1 31678U 99025CCL 19231.85910021  .00000243  00000-0  66797-4 0  9990
2 31678  98.9890 243.1786 0345830 328.1912  29.8785 14.27236268638445
Source of the keplerian elements: AFSPC